Location: Peach Mountain Observatory
(42.3967°N, 83.9367°W)
Time: 16:25:05
(UTC-05:00)

Tiros 1 despin weight - Visible Passes

Search period start: 24 January 2020 00:00
Search period end: 03 February 2020 00:00
Orbit: 594 x 642 km, 48.2° (Epoch: 24 January)

Date Brightness Start Highest point End Pass type
(mag) Time Alt. Az. Time Alt. Az. Time Alt. Az.
24 Jan ? 19:22:01 10° W 19:24:41 15° SW 19:27:20 10° SSW visible
26 Jan ? 18:12:53 10° W 18:16:27 22° SW 18:20:00 10° S visible
27 Jan ? 18:31:17 10° WSW 18:32:36 11° SW 18:33:56 10° SSW visible
